Hutchinson, MN

3:09 AM CDT on April 25, 2017 (GMT -0500)
Hutchinson Municipal-Butler

Weather History for KHCD - September, 2013

Change the Weather History Date:

Saturday, September 21, 2013

  Actual Average Record
Temperature  
Mean Temperature 52 °F -  
Max Temperature 65 °F 67 °F 89 °F (2005)
Min Temperature 40 °F 45 °F 30 °F (2000)
Degree Days  
Heating Degree Days 13    
Growing Degree Days 2 (Base 50)    
Moisture  
Dew Point 45 °F    
Average Humidity 79    
Maximum Humidity 100    
Minimum Humidity 52    
Precipitation  
Precipitation 0.00 in - - ()
Sea Level Pressure  
Sea Level Pressure 29.97 in    
Wind  
Wind Speed 3 mph (NNW)    
Max Wind Speed 9 mph    
Max Gust Speed -    
Visibility 9 miles    
Events Fog    
Averages and records for this station are not official NWS values.
T = Trace of Precipitation, MM = Missing Value Source: NWS Daily Summary

Daily Weather History Graph

Daily Weather History Graph

Search for Another Location

Airport or City:

Trip Planner

Search our weather history database for the weather conditions in past years. The results will help you decide how hot, cold, wet, or windy it might be!

Date:

Astronomy

Sep. 21, 2013 Rise Set
Actual Time 7:03 AM CDT 7:16 PM CDT
Civil Twilight 6:34 AM CDT 7:45 PM CDT
Nautical Twilight 6:00 AM CDT 8:19 PM CDT
Astronomical Twilight 5:24 AM CDT 8:55 PM CDT
Moon 8:18 PM CDT (9/21) 9:30 AM CDT (9/21)
Length of Visible Light 13h 11m
Length of Day
12h 12m
Waning Gibbous, 94% of the Moon is Illuminated
Sep 21
Waning Gibbous
Sep 26
Last Quarter
Oct 4
New
Oct 11
First Quarter
Oct 18
Full

Hourly Weather History & Observations

Time (CDT) Temp. Windchill Dew Point Humidity Pressure Visibility Wind Dir Wind Speed Gust Speed Precip Events Conditions
12:14 AM 45.0 °F 43.5 °F 44.6 °F 99% 29.97 in 10.0 mi West 3.5 mph - N/A   Clear
12:33 AM 44.2 °F 41.8 °F 43.9 °F 99% 29.97 in 10.0 mi West 4.6 mph - N/A   Clear
12:53 AM 43.9 °F 42.3 °F 43.7 °F 99% 29.97 in 10.0 mi West 3.5 mph - N/A   Clear
1:13 AM 44.6 °F - 44.2 °F 99% 29.97 in 10.0 mi Calm Calm - N/A   Clear
1:34 AM 43.0 °F 40.3 °F 42.8 °F 99% 29.98 in 10.0 mi West 4.6 mph - N/A   Clear
1:53 AM 43.2 °F - 43.0 °F 99% 29.98 in 10.0 mi Calm Calm - N/A   Clear
2:13 AM 44.1 °F 42.5 °F 43.9 °F 99% 29.98 in 10.0 mi West 3.5 mph - N/A   Clear
2:33 AM 43.3 °F 41.7 °F 42.8 °F 98% 29.98 in 10.0 mi West 3.5 mph - N/A   Clear
2:54 AM 44.1 °F 42.5 °F 43.7 °F 99% 29.98 in 10.0 mi West 3.5 mph - N/A   Clear
3:13 AM 43.7 °F - 43.5 °F 99% 29.98 in 10.0 mi Calm Calm - N/A   Clear
3:33 AM 44.1 °F - 44.1 °F 100% 29.98 in 10.0 mi Calm Calm - N/A   Clear
3:54 AM 43.3 °F - 43.0 °F 99% 29.99 in 10.0 mi Calm Calm - N/A   Clear
4:13 AM 43.5 °F - 43.5 °F 100% 29.98 in 10.0 mi Calm Calm - N/A   Clear
4:33 AM 41.7 °F 39.8 °F 41.5 °F 99% 29.99 in 5.0 mi WNW 3.5 mph - N/A   Clear
4:54 AM 41.5 °F - 41.7 °F 100% 29.99 in 5.0 mi Calm Calm - N/A   Clear
5:13 AM 43.0 °F 41.3 °F 43.2 °F 100% 29.99 in 7.0 mi WNW 3.5 mph - N/A   Clear
5:34 AM - - - N/A% 30.00 in 7.0 mi WNW 3.5 mph - N/A   Clear
5:53 AM 43.5 °F 41.9 °F 43.5 °F 100% 30.00 in 7.0 mi WNW 3.5 mph - N/A   Clear
6:14 AM 40.8 °F 38.8 °F 40.6 °F 99% 30.00 in 5.0 mi West 3.5 mph - N/A   Clear
6:33 AM 40.8 °F 38.8 °F 40.8 °F 100% 30.01 in 5.0 mi West 3.5 mph - N/A   Clear
6:54 AM 40.1 °F - 40.3 °F 100% 30.01 in 2.0 mi Calm Calm - N/A   Clear
7:13 AM 40.5 °F - 40.6 °F 100% 30.01 in 1.8 mi Calm Calm - N/A   Mist
7:33 AM 41.0 °F - 41.2 °F 100% 30.01 in 0.5 mi Calm Calm - N/A Fog Fog
7:54 AM 42.6 °F - 42.8 °F 100% 30.01 in 5.0 mi Calm Calm - N/A   Clear
8:13 AM 46.2 °F 45.0 °F 46.4 °F 100% 30.01 in 10.0 mi NW 3.5 mph - N/A   Clear
8:34 AM 48.7 °F - 46.4 °F 92% 30.01 in 10.0 mi North 3.5 mph - N/A   Clear
8:53 AM 50.0 °F - 45.9 °F 86% 30.01 in 10.0 mi NNW 6.9 mph - N/A   Clear
9:14 AM 51.3 °F - 45.5 °F 81% 30.02 in 10.0 mi North 4.6 mph - N/A   Clear
9:33 AM 52.0 °F - 45.1 °F 77% 30.02 in 10.0 mi NNW 6.9 mph - N/A   Clear
9:54 AM 53.1 °F - 44.6 °F 73% 30.02 in 10.0 mi NNW 6.9 mph - N/A   Clear
10:14 AM 54.0 °F - 44.1 °F 69% 30.02 in 10.0 mi North 5.8 mph - N/A   Clear
10:33 AM 55.2 °F - 44.4 °F 67% 30.02 in 10.0 mi North 5.8 mph - N/A   Clear
10:53 AM 55.9 °F - 43.9 °F 64% 30.02 in 10.0 mi NNW 6.9 mph - N/A   Clear
11:14 AM 56.3 °F - 44.2 °F 64% 30.02 in 10.0 mi NW 3.5 mph - N/A   Clear
11:33 AM 56.8 °F - 44.2 °F 63% 30.02 in 10.0 mi WNW 5.8 mph - N/A   Clear
11:51 AM 57.7 °F - 45.3 °F 63% 30.02 in 10.0 mi NW 5.8 mph - N/A   Clear
12:13 PM 58.8 °F - 45.3 °F 61% 30.01 in 10.0 mi WNW 9.2 mph - N/A   Clear
12:33 PM 59.7 °F - 45.3 °F 59% 30.01 in 10.0 mi NW 9.2 mph - N/A   Clear
12:53 PM 59.5 °F - 45.7 °F 60% 30.01 in 10.0 mi NW 8.1 mph - N/A   Scattered Clouds
1:13 PM 59.9 °F - 45.3 °F 59% 30.00 in 10.0 mi WNW 3.5 mph - N/A   Clear
1:33 PM 61.0 °F - 45.3 °F 56% 29.99 in 10.0 mi West 3.5 mph - N/A   Clear
1:53 PM 62.1 °F - 45.9 °F 55% 29.99 in 10.0 mi WNW 4.6 mph - N/A   Clear
2:09 PM 62.2 °F - 45.3 °F 54% 29.98 in 10.0 mi NNW 5.8 mph - N/A   Clear
2:34 PM 63.3 °F - 46.6 °F 54% 29.97 in 10.0 mi NW 5.8 mph - N/A   Clear
2:53 PM 63.9 °F - 46.6 °F 53% 29.97 in 10.0 mi NNW 4.6 mph - N/A   Clear
3:13 PM 64.0 °F - 46.8 °F 53% 29.96 in 10.0 mi Calm Calm - N/A   Clear
3:34 PM 64.0 °F - 46.4 °F 53% 29.95 in 10.0 mi WNW 4.6 mph - N/A   Clear
3:53 PM 64.6 °F - 46.9 °F 53% 29.94 in 10.0 mi NNW 4.6 mph - N/A   Clear
4:13 PM 64.4 °F - 46.9 °F 53% 29.94 in 10.0 mi Calm Calm - N/A   Clear
4:33 PM 64.6 °F - 46.9 °F 53% 29.94 in 10.0 mi Calm Calm - N/A   Clear
4:53 PM 64.6 °F - 46.8 °F 52% 29.93 in 10.0 mi Calm Calm - N/A   Clear
5:14 PM 64.6 °F - 46.8 °F 52% 29.93 in 10.0 mi Calm Calm - N/A   Clear
5:33 PM 64.4 °F - 46.6 °F 52% 29.92 in 10.0 mi Calm Calm - N/A   Clear
5:54 PM 64.0 °F - 46.2 °F 52% 29.92 in 10.0 mi Calm Calm - N/A   Clear
6:13 PM 64.6 °F - 46.4 °F 52% 29.92 in 10.0 mi Calm Calm - N/A   Clear
6:34 PM 63.9 °F - 46.0 °F 52% 29.92 in 10.0 mi Calm Calm - N/A   Clear
6:53 PM 60.8 °F - 48.4 °F 64% 29.92 in 10.0 mi ENE 3.5 mph - N/A   Clear
7:14 PM 58.3 °F - 48.2 °F 69% 29.92 in 10.0 mi ENE 3.5 mph - N/A   Clear
7:34 PM 56.3 °F - 48.2 °F 74% 29.92 in 10.0 mi ENE 3.5 mph - N/A   Clear
7:53 PM 53.6 °F - 48.4 °F 82% 29.92 in 10.0 mi East 3.5 mph - N/A   Clear
8:14 PM 51.3 °F - 47.1 °F 86% 29.92 in 10.0 mi East 4.6 mph - N/A   Clear
8:33 PM 51.8 °F - 47.5 °F 85% 29.93 in 10.0 mi Calm Calm - N/A   Clear
8:54 PM 51.3 °F - 46.8 °F 85% 29.93 in 10.0 mi East 4.6 mph - N/A   Clear
9:13 PM 51.6 °F - 46.8 °F 83% 29.94 in 10.0 mi East 4.6 mph - N/A   Clear
9:33 PM 49.8 °F - 46.4 °F 88% 29.94 in 10.0 mi ESE 3.5 mph - N/A   Clear
9:54 PM 50.2 °F - 46.4 °F 87% 29.94 in 10.0 mi East 3.5 mph - N/A   Clear
10:13 PM 49.5 °F - 46.2 °F 89% 29.94 in 10.0 mi East 3.5 mph - N/A   Clear
10:34 PM 47.8 °F - 45.1 °F 90% 29.95 in 10.0 mi East 5.8 mph - N/A   Clear
10:53 PM 49.6 °F - 46.4 °F 89% 29.95 in 10.0 mi East 5.8 mph - N/A   Clear
11:14 PM 51.3 °F - 47.3 °F 86% 29.94 in 10.0 mi East 6.9 mph - N/A   Clear
11:33 PM 50.2 °F - 46.8 °F 88% 29.94 in 10.0 mi East 5.8 mph - N/A   Clear
11:54 PM 47.5 °F - 45.5 °F 93% 29.94 in 10.0 mi East 4.6 mph - N/A   Clear